Location: Unspecified
(0.0000°N, 0.0000°E)
Time: 21:23:08
(UTC+00:00)

N. Korean satellite - Pass Details

Date: 31 May 2023
Orbit: 364 x 379 km, 97.3° (Epoch: 04 June)

Event Time Altitude Azimuth Distance (km) Brightness Sun altitude
Rises 04:33:33 0° 41° (NE) 2,249 11.1 -19.4°
Reaches altitude 10° 04:36:15 10° 70° (ENE) 1,399 10.2 -18.8°
Maximum altitude 04:37:47 13° 101° (E) 1,221 9.4 -18.5°
Drops below altitude 10° 04:39:19 10° 132° (SE) 1,401 9.2 -18.1°
Sets 04:42:01 0° 161° (SSE) 2,254 9.9 -17.5°
